Date,TemperatureHighF,TemperatureAvgF,TemperatureLowF,DewpointHighF,DewpointAvgF,DewpointLowF,HumidityHigh,HumidityAvg,HumidityLow,PressureMaxIn,PressureMinIn,WindSpeedMaxMPH,WindSpeedAvgMPH,GustSpeedMaxMPH,PrecipitationSumIn
2013-1-1,60.2,49.6,45.3,42.4,36.2,33.7,68,60,42,30.21,30.06,5,1,5,0.00
2013-1-2,62.5,51.2,44.5,37.6,33.2,28.8,60,51,34,30.11,30.00,11,1,11,0.00
2013-1-3,65.6,52.4,44.2,33.6,31.5,27.9,57,46,27,30.15,30.02,10,1,10,0.00
2013-1-4,63.3,51.7,45.1,33.1,30.0,24.5,55,44,28,30.25,30.13,8,1,8,0.00
2013-1-5,62.2,50.8,43.8,36.9,31.1,26.9,63,48,29,30.26,30.13,9,1,9,0.00
2013-1-6,56.1,51.5,48.0,44.8,41.5,35.8,77,68,59,30.18,29.99,13,1,13,0.14
2013-1-7,62.7,52.3,45.1,41.8,39.0,35.6,74,61,43,30.07,29.93,10,1,10,0.00
2013-1-8,67.6,54.2,46.7,48.1,39.4,32.1,70,58,37,30.09,29.98,8,1,10,0.00
2013-1-9,64.0,55.3,47.6,49.6,44.0,37.4,74,66,52,30.10,29.98,8,1,8,0.00
2013-1-10,57.7,54.2,48.9,47.5,37.7,28.6,76,55,38,30.06,29.87,11,2,11,0.00
2013-1-11,55.5,49.5,45.1,30.4,27.6,24.2,52,43,33,30.16,30.01,13,2,13,0.00
2013-1-12,55.9,47.5,41.5,30.6,27.4,22.8,57,46,33,30.14,30.03,9,1,9,0.00
2013-1-13,55.2,46.4,40.2,29.6,27.1,23.6,57,48,33,30.15,30.01,9,1,9,0.00
2013-1-14,54.8,45.3,37.3,26.8,22.6,17.7,53,41,29,30.30,30.10,10,1,10,0.00
2013-1-15,58.4,47.5,40.0,32.7,25.7,19.7,58,43,28,30.42,30.28,14,1,14,0.00
2013-1-16,64.9,51.5,42.9,36.2,32.3,26.4,60,49,32,30.33,30.09,14,1,14,0.00
2013-1-17,72.3,57.0,48.5,37.9,33.5,29.5,56,43,24,30.15,30.01,11,1,11,0.00
2013-1-18,73.0,58.1,49.4,39.3,33.3,28.2,53,40,25,30.12,30.00,12,1,12,0.00
2013-1-19,73.3,58.5,49.8,38.6,32.4,27.9,48,38,22,30.16,30.03,15,1,15,0.00
2013-1-20,74.4,58.2,49.4,37.5,31.1,25.8,50,37,21,30.12,29.95,10,1,10,0.00
2013-1-21,76.0,59.7,49.9,35.3,29.8,23.3,40,33,19,30.07,29.95,8,1,8,0.00
2013-1-22,74.2,59.7,51.0,38.0,30.3,22.0,44,34,19,30.07,29.96,8,1,8,0.00
2013-1-23,70.3,62.0,55.9,49.5,37.6,30.4,68,41,34,30.11,29.98,18,1,18,0.02
2013-1-24,63.1,58.7,55.9,54.5,51.4,48.2,82,77,69,30.18,30.06,8,0,8,0.82
2013-1-25,62.5,60.1,58.2,56.6,54.5,52.0,84,82,77,30.10,29.91,10,0,10,0.16
2013-1-26,65.8,60.7,58.4,58.0,54.5,51.8,85,80,70,29.98,29.85,12,1,12,0.00
2013-1-27,60.7,56.9,49.9,53.0,48.0,38.2,82,72,57,30.00,29.92,10,2,10,0.06
2013-1-28,60.2,51.6,45.1,39.2,35.5,32.1,70,55,41,30.15,29.99,14,1,14,0.00
2013-1-29,60.7,51.6,44.7,42.2,37.3,30.5,69,58,48,30.21,30.10,10,1,10,0.00
2013-1-30,66.3,54.4,46.5,45.2,40.7,36.1,71,60,43,30.31,30.17,9,1,9,0.00
2013-1-31,72.8,57.6,48.3,46.2,41.7,36.9,69,56,38,30.21,30.05,9,1,9,0.00
2013-2-1,69.7,59.1,50.5,50.3,43.8,37.1,67,57,43,30.14,30.05,9,1,9,0.00
2013-2-2,71.0,62.1,55.7,50.7,46.7,42.4,68,58,42,30.16,30.06,13,0,13,0.00
2013-2-3,73.0,62.7,56.1,50.7,48.1,45.3,71,60,44,30.11,29.95,14,1,14,0.00
2013-2-4,68.8,58.2,51.2,53.6,47.7,41.5,75,68,56,30.07,29.94,10,1,10,0.00
2013-2-5,60.9,57.5,56.1,50.8,48.5,46.8,75,72,67,30.07,29.95,9,1,9,0.00
2013-2-6,64.5,57.6,51.4,50.0,46.7,42.3,72,67,58,30.08,29.97,17,1,17,0.00
2013-2-7,61.5,54.5,48.5,49.8,44.5,38.5,77,69,63,30.11,29.96,13,1,13,0.04
2013-2-8,54.4,50.7,45.8,45.6,40.5,35.7,74,68,60,29.97,29.84,13,2,13,0.09
2013-2-9,58.9,49.7,42.7,42.4,37.6,32.2,71,63,51,30.08,29.90,10,1,10,0.00
2013-2-10,56.6,51.0,45.8,43.4,39.6,34.8,69,65,58,30.08,29.98,9,1,9,0.00
2013-2-11,61.8,51.9,44.7,45.7,38.7,34.0,73,61,46,30.21,30.03,14,1,14,0.00
2013-2-12,63.6,52.3,43.6,39.2,35.4,30.3,64,54,35,30.32,30.19,9,1,9,0.00
2013-2-13,67.4,54.0,45.3,44.3,37.9,32.1,66,55,37,30.23,30.09,9,1,9,0.00
2013-2-14,72.6,56.8,46.5,45.3,40.4,34.1,67,56,34,30.17,30.01,10,1,10,0.00
2013-2-15,76.6,61.2,50.8,43.2,38.0,33.9,62,44,24,30.16,30.07,9,1,9,0.00
2013-2-16,77.1,62.0,52.3,36.5,33.4,28.8,47,36,21,30.13,29.93,16,1,16,0.00
2013-2-17,67.8,56.8,48.3,48.5,41.5,30.6,68,57,46,30.00,29.88,13,2,13,0.00
2013-2-18,66.1,58.6,55.0,47.8,45.0,42.4,67,61,51,30.04,29.91,15,2,15,0.00
2013-2-19,56.6,54.2,50.7,45.8,42.0,38.6,74,63,56,29.96,29.68,4,1,10,0.22
2013-2-20,60.0,51.4,43.6,42.8,35.6,31.7,74,55,40,29.97,29.67,16,2,16,0.00
2013-2-21,64.0,53.2,46.2,43.2,38.7,33.8,68,58,44,30.06,29.93,7,1,7,0.00
2013-2-22,65.4,53.6,45.1,41.3,36.9,31.9,65,54,36,30.17,30.06,15,1,15,0.00
2013-2-23,64.3,54.3,46.0,46.0,40.5,32.9,69,60,46,30.13,29.88,10,1,10,0.00
2013-2-24,67.0,55.3,48.3,44.7,36.8,30.4,74,52,29,30.17,29.95,12,1,12,0.00
2013-2-25,68.5,55.0,45.8,37.6,32.5,26.9,60,44,27,30.19,30.03,11,1,11,0.00
2013-2-26,71.7,55.8,45.4,44.2,36.1,30.2,61,49,27,30.08,29.93,9,1,9,0.00
2013-2-27,73.5,58.9,49.2,37.8,33.1,29.0,57,40,23,30.23,30.08,12,1,12,0.00
2013-2-28,76.6,60.7,49.9,38.1,33.0,27.3,52,37,21,30.28,30.19,8,1,8,0.00
2013-3-1,83.1,64.9,52.8,40.4,36.3,30.3,52,37,21,30.27,30.09,10,1,10,0.00
2013-3-2,81.1,66.2,56.6,43.2,38.1,32.6,58,37,24,30.17,30.02,10,1,10,0.00
2013-3-3,71.4,61.8,56.2,50.9,47.1,41.3,70,59,41,30.08,29.93,13,1,13,0.00
2013-3-4,70.8,61.3,55.2,52.5,49.1,45.4,71,64,51,30.07,29.97,10,1,10,0.00
2013-3-5,65.8,58.2,53.2,52.7,48.0,43.9,75,69,61,30.09,29.98,10,1,10,0.00
2013-3-6,65.6,58.2,51.7,47.6,44.6,39.5,70,61,50,30.12,29.98,10,1,10,0.00
2013-3-7,60.0,57.4,55.5,50.2,47.5,45.0,79,69,59,29.99,29.81,12,1,12,0.12
2013-3-8,59.5,54.8,51.0,46.7,44.0,41.2,76,67,55,29.99,29.76,11,1,11,0.47
2013-3-9,64.5,56.4,49.0,48.2,44.9,39.9,76,66,49,30.19,29.98,12,1,12,0.00
2013-3-10,70.1,57.8,47.8,46.6,42.4,37.7,71,58,39,30.23,30.11,11,1,11,0.00
2013-3-11,75.0,59.9,48.9,51.7,42.7,36.0,66,54,33,30.15,30.00,12,1,12,0.00
2013-3-12,77.5,62.2,51.0,52.7,45.5,39.6,70,56,36,30.06,29.95,8,1,8,0.00
2013-3-13,82.9,65.3,52.3,53.4,47.4,41.0,72,54,35,30.08,29.96,10,1,14,0.00
2013-3-14,78.4,65.5,55.0,57.2,50.4,45.6,75,59,40,30.06,29.96,10,1,10,0.00
2013-3-15,75.9,64.3,58.0,57.7,52.0,48.1,76,65,50,30.01,29.89,12,1,12,0.00
2013-3-16,69.4,61.1,57.1,54.0,50.0,47.5,73,67,56,29.95,29.84,10,2,10,0.00
2013-3-17,70.6,58.6,56.1,54.0,49.1,46.8,74,71,55,29.98,29.88,10,1,10,0.00
2013-3-18,66.9,60.6,56.4,53.2,49.7,46.2,71,67,60,30.05,29.95,15,1,15,0.00
2013-3-19,69.0,58.9,52.8,54.9,48.8,43.3,77,69,59,30.09,30.00,11,1,12,0.00
2013-3-20,69.9,60.9,54.3,55.8,50.0,45.0,78,67,54,30.07,29.92,9,1,9,0.00
2013-3-21,72.8,62.2,54.6,56.7,50.0,45.0,76,65,49,29.93,29.77,13,1,13,0.00
2013-3-22,71.2,62.0,56.1,54.4,50.3,46.7,75,65,54,29.88,29.78,16,1,16,0.00
2013-3-23,72.4,61.6,54.4,54.0,49.3,44.6,74,64,51,29.98,29.88,12,1,12,0.00
2013-3-24,75.7,63.2,55.3,54.3,50.3,46.3,77,64,42,30.00,29.85,12,1,12,0.00
2013-3-25,75.7,64.3,53.7,55.8,50.9,43.5,79,62,47,29.95,29.83,10,1,10,0.00
2013-3-26,72.1,59.2,57.3,55.1,49.5,47.5,76,70,54,29.94,29.85,6,0,6,0.00
2013-3-27,72.4,62.5,57.3,55.0,50.5,47.2,74,65,53,30.01,29.90,14,1,14,0.00
2013-3-28,74.8,63.4,57.1,56.0,51.5,48.0,74,65,50,30.05,29.97,11,1,11,0.00
2013-3-29,74.8,63.1,55.9,58.4,52.1,47.2,77,68,54,30.08,29.99,10,1,10,0.00
2013-3-30,73.0,63.4,58.2,56.0,51.7,49.0,76,66,52,30.10,30.01,12,1,12,0.00
2013-3-31,68.3,61.9,58.6,56.3,52.3,48.7,74,71,64,30.10,30.02,12,1,12,0.00
2013-4-1,67.8,61.2,56.6,53.6,50.4,47.4,75,68,60,30.14,30.03,13,2,13,0.00
2013-4-2,72.8,62.0,53.9,55.5,50.4,45.1,78,66,53,30.07,29.94,12,1,12,0.00
2013-4-3,75.3,64.3,56.1,57.7,52.5,47.4,77,66,49,30.05,29.93,12,1,12,0.00
2013-4-4,72.3,64.6,60.2,56.2,53.0,49.7,72,66,55,30.08,29.96,13,2,13,0.00
2013-4-5,72.3,64.6,60.6,57.7,53.7,51.0,74,68,58,30.06,29.95,14,2,14,0.00
2013-4-6,71.7,64.0,57.9,56.7,52.4,47.4,76,66,53,30.05,29.92,12,2,12,0.00
2013-4-7,74.1,64.2,56.4,57.4,52.3,47.0,76,66,50,29.95,29.77,14,2,14,0.00
2013-4-8,69.6,63.4,58.6,52.3,45.4,37.2,73,54,36,29.79,29.61,12,2,12,0.00
2013-4-9,74.8,62.4,51.0,42.1,38.6,33.7,59,43,25,29.98,29.78,13,1,13,0.00
2013-4-10,78.2,65.4,52.3,44.1,41.5,37.2,61,44,26,30.06,29.93,18,2,18,0.00
2013-4-11,75.7,65.0,55.0,52.8,47.1,41.9,64,53,37,29.97,29.74,15,2,15,0.00
2013-4-12,73.5,64.5,59.1,55.5,50.8,47.4,69,61,51,29.87,29.74,15,1,15,0.00
2013-4-13,65.4,61.1,58.2,54.3,51.4,48.3,75,70,65,29.89,29.80,11,2,11,0.00
2013-4-14,64.9,60.6,58.0,52.1,49.2,45.6,69,66,63,29.86,29.79,11,2,11,0.00
2013-4-15,65.4,60.1,58.0,53.2,49.5,46.3,77,68,61,29.88,29.79,15,2,15,0.02
2013-4-16,68.5,60.1,53.2,46.7,42.3,34.8,68,53,36,29.95,29.83,16,2,16,0.00
2013-4-17,75.1,61.9,53.0,40.3,35.3,30.5,55,39,24,30.09,29.95,17,2,17,0.00
2013-4-18,79.6,63.4,51.4,40.3,35.6,31.3,55,38,21,30.17,30.07,13,1,13,0.00
2013-4-19,82.0,67.0,53.7,46.3,37.2,32.5,56,36,18,30.13,29.92,17,1,17,0.00
2013-4-20,84.7,68.6,55.5,54.2,47.7,42.8,68,49,29,29.97,29.83,12,1,12,0.00
2013-4-21,83.4,69.1,57.3,57.2,52.1,45.7,72,56,36,29.98,29.88,14,2,14,0.00
2013-4-22,76.9,67.2,61.6,55.8,52.4,49.4,68,59,46,29.98,29.85,13,2,13,0.00
2013-4-23,78.4,66.5,61.1,54.9,51.2,47.2,68,58,43,29.95,29.81,10,2,10,0.00
2013-4-24,63.6,62.4,61.6,52.7,51.2,48.6,69,66,60,29.95,29.86,11,1,11,0.00
2013-4-25,74.8,65.8,60.0,53.6,50.5,48.1,66,58,46,30.08,29.93,11,1,11,0.00
2013-4-26,76.4,65.0,55.0,56.1,50.3,44.5,72,60,45,30.12,30.05,16,1,16,0.00
2013-4-27,76.9,65.7,56.2,57.9,52.3,45.9,74,62,50,30.12,29.95,14,1,14,0.00
2013-4-28,79.1,67.3,60.6,60.5,54.8,50.5,73,64,51,30.00,29.82,13,2,13,0.00
2013-4-29,77.1,67.2,61.6,60.0,54.9,51.3,74,65,51,29.87,29.73,15,2,15,0.00
2013-4-30,72.4,64.9,61.6,57.1,52.9,49.4,69,65,57,29.87,29.77,12,2,12,0.00
2013-5-1,80.2,68.1,61.8,59.3,54.3,50.5,72,62,47,30.06,29.87,9,1,9,0.00
2013-5-2,89.4,71.6,57.3,55.3,49.5,44.6,76,50,23,30.09,29.94,11,1,11,0.00
2013-5-3,91.7,75.2,63.1,49.2,41.3,36.8,54,32,16,29.98,29.73,11,1,11,0.00
2013-5-4,78.2,68.7,61.8,58.4,53.6,49.2,70,59,48,29.82,29.70,14,2,14,0.00
2013-5-5,68.5,64.9,62.4,52.9,50.9,48.5,68,60,55,29.92,29.79,18,3,18,0.00
2013-5-6,67.6,62.8,59.1,56.7,53.5,50.6,82,72,61,29.98,29.87,13,2,13,0.53
2013-5-7,71.0,64.0,58.4,56.0,51.8,48.4,79,65,50,30.04,29.95,13,1,13,0.10
2013-5-8,71.7,64.7,60.2,53.2,50.9,48.0,73,61,49,30.06,30.02,13,2,13,0.00
2013-5-9,76.4,65.0,56.6,58.3,52.8,45.7,74,65,52,30.07,29.98,14,1,14,0.05
2013-5-10,78.0,67.4,59.1,61.4,56.1,50.7,79,68,55,30.06,29.96,14,1,14,0.00
2013-5-11,85.9,71.2,60.2,65.0,58.2,50.9,78,64,48,30.04,29.93,11,1,11,0.00
2013-5-12,88.8,74.6,61.6,64.9,58.6,52.1,78,59,38,30.02,29.85,11,1,11,0.00
2013-5-13,93.3,78.6,65.2,62.4,57.7,54.3,72,51,31,29.93,29.81,12,1,12,0.00
2013-5-14,82.9,72.3,64.5,59.3,54.6,51.1,64,54,40,29.97,29.86,16,2,16,0.00
2013-5-15,79.3,69.4,62.0,59.4,54.8,49.5,70,60,48,30.01,29.90,12,2,12,0.00
2013-5-16,75.9,67.5,64.0,59.3,54.6,51.0,68,63,55,29.95,29.85,10,1,10,0.00
2013-5-17,74.2,68.3,63.6,58.9,55.2,52.1,70,63,56,29.97,29.87,16,2,16,0.00
2013-5-18,78.4,66.0,60.9,59.1,54.6,50.5,74,67,50,30.01,29.94,12,1,12,0.00
2013-5-19,79.3,68.9,59.8,59.4,54.6,49.8,73,61,50,29.96,29.83,5,1,5,0.00
2013-5-20,84.9,73.9,60.4,63.2,58.5,50.3,76,59,46,29.92,29.83,13,2,13,0.00
2013-5-21,84.0,72.9,66.3,63.7,59.1,55.1,71,62,49,29.90,29.79,14,2,14,0.00
2013-5-22,78.4,71.2,66.9,60.0,56.6,53.6,65,60,52,29.82,29.73,10,2,10,0.00
2013-5-23,76.2,68.4,63.3,57.0,53.2,49.3,65,58,49,29.90,29.78,13,2,13,0.00
2013-5-24,77.1,67.3,59.7,57.8,52.8,48.1,68,60,50,29.95,29.88,15,1,15,0.00
2013-5-25,77.1,66.9,59.7,58.3,52.9,48.5,70,61,50,30.00,29.92,10,1,10,0.00
2013-5-26,76.6,66.5,58.4,58.6,53.6,48.0,74,63,53,30.02,29.94,12,1,12,0.00
2013-5-27,78.6,69.1,62.0,60.7,55.4,51.3,71,62,51,29.97,29.82,13,1,13,0.00
2013-5-28,79.8,71.2,64.9,61.8,57.4,53.4,71,62,48,29.85,29.69,14,2,14,0.00
2013-5-29,82.0,72.1,64.0,62.4,57.7,53.9,73,61,45,29.77,29.67,14,2,14,0.00
2013-5-30,83.8,72.7,62.7,63.9,58.8,51.9,75,62,49,29.85,29.73,14,2,14,0.00
2013-5-31,82.9,72.7,66.3,63.7,58.9,54.5,71,62,51,29.88,29.77,10,1,10,0.00
2013-6-1,84.7,76.3,67.9,65.9,61.2,57.1,70,60,52,29.83,29.70,12,2,12,0.00
2013-6-2,79.3,72.4,67.9,63.4,59.2,55.3,69,63,54,29.80,29.73,15,2,15,0.00
2013-6-3,81.1,70.9,65.8,62.1,57.1,53.2,69,62,51,29.86,29.76,13,2,13,0.00
2013-6-4,79.6,69.9,65.2,60.8,56.6,53.4,70,63,51,29.93,29.85,9,2,9,0.00
2013-6-5,78.0,69.2,64.0,60.1,56.1,52.6,69,63,53,29.97,29.87,13,1,13,0.00
2013-6-6,78.2,68.2,62.7,61.9,56.7,53.0,75,67,55,29.92,29.83,14,1,14,0.00
2013-6-7,78.9,69.3,64.0,62.4,57.1,53.2,72,65,55,29.89,29.74,18,1,18,0.00
2013-6-8,80.5,71.0,66.0,62.5,57.8,54.1,71,63,52,29.87,29.75,16,1,16,0.00
2013-6-9,80.7,70.6,65.1,63.2,57.6,53.5,73,64,52,29.90,29.82,17,1,17,0.00
2013-6-10,80.9,71.3,65.2,60.2,56.4,53.1,68,60,47,29.92,29.85,11,1,11,0.00
2013-6-11,82.0,72.2,63.4,62.6,57.8,52.4,72,61,49,29.91,29.84,12,1,12,0.00
2013-6-12,80.0,71.6,67.4,63.4,58.8,55.2,71,64,55,30.00,29.87,11,1,11,0.00
2013-6-13,82.2,71.2,65.4,62.6,57.8,54.1,70,63,49,29.98,29.85,9,1,9,0.00
2013-6-14,82.0,71.1,64.2,63.1,57.4,53.7,72,62,49,29.90,29.79,12,1,12,0.00
2013-6-15,80.9,70.6,65.2,61.3,56.4,53.1,69,61,49,29.95,29.85,11,1,11,0.00
2013-6-16,82.3,71.0,64.2,61.6,56.8,52.8,72,61,49,30.00,29.90,14,1,14,0.00
2013-6-17,83.1,71.0,60.9,62.5,57.3,50.8,77,63,47,29.95,29.84,16,1,16,0.00
2013-6-18,83.4,72.2,63.6,63.9,58.1,53.8,75,62,48,29.89,29.79,7,1,11,0.00
2013-6-19,81.1,71.6,63.6,60.3,55.3,51.6,71,57,42,29.85,29.74,12,1,12,0.00
2013-6-20,84.9,72.7,62.2,63.2,56.1,51.7,74,57,38,29.83,29.75,13,1,13,0.00
2013-6-21,85.2,74.0,64.3,62.3,57.9,52.1,73,58,45,29.87,29.79,12,1,12,0.00
2013-6-22,84.1,74.2,67.9,62.1,58.4,54.8,67,58,47,29.88,29.77,12,1,12,0.00
2013-6-23,79.6,71.9,67.6,60.9,57.7,54.3,68,61,51,29.85,29.75,10,1,10,0.00
2013-6-24,78.2,70.4,66.3,61.0,57.6,54.3,70,64,54,29.91,29.79,9,1,10,0.00
2013-6-25,79.6,71.3,66.5,63.4,59.5,56.2,73,66,56,29.97,29.86,12,1,12,0.00
2013-6-26,88.3,76.4,65.2,67.5,61.5,55.2,77,61,46,29.95,29.85,11,1,11,0.00
2013-6-27,93.3,79.9,68.8,69.0,63.4,57.4,72,58,44,29.99,29.91,10,1,13,0.00
2013-6-28,93.0,80.9,70.5,68.5,63.0,57.6,69,55,42,29.96,29.82,12,1,12,0.00
2013-6-29,94.4,80.7,69.7,69.1,62.8,57.6,71,56,41,29.85,29.69,13,1,13,0.00
2013-6-30,90.4,79.1,70.8,69.8,64.2,59.6,73,60,48,29.79,29.67,16,1,16,0.00
2013-7-1,94.9,79.3,69.9,69.8,64.3,59.9,76,61,38,29.85,29.75,9,0,9,0.00
2013-7-2,86.7,77.7,70.5,68.3,63.7,59.1,74,62,51,29.95,29.84,10,1,10,0.00
2013-7-3,83.1,75.0,68.7,66.6,62.3,58.8,75,65,53,29.91,29.76,8,0,8,0.00
2013-7-4,89.0,76.6,69.2,66.5,61.9,58.4,72,61,47,29.80,29.70,13,1,13,0.00
2013-7-5,84.0,75.0,68.8,65.0,61.3,57.2,71,62,51,29.80,29.71,10,0,14,0.00
2013-7-6,86.8,76.1,69.7,66.8,62.3,58.3,73,62,51,29.80,29.70,8,1,10,0.00
2013-7-7,84.3,75.9,70.3,66.4,62.1,58.6,70,62,51,29.83,29.72,9,1,9,0.00
2013-7-8,87.9,75.6,65.2,66.6,60.3,54.5,75,60,43,29.89,29.80,10,1,10,0.00
2013-7-9,89.4,77.4,66.3,66.8,61.8,55.6,74,59,45,29.95,29.85,10,1,10,0.00
2013-7-10,79.3,75.7,72.1,64.9,62.7,59.3,70,64,58,29.93,29.86,9,0,9,0.00
2013-7-11,77.5,74.1,71.2,66.0,63.6,60.8,74,69,65,29.93,29.85,2,0,2,0.00
2013-7-12,87.7,76.6,71.0,69.0,63.3,58.3,75,64,49,29.90,29.80,9,0,10,0.00
2013-7-13,85.2,74.8,67.9,66.2,60.6,56.4,71,62,47,29.93,29.81,10,1,10,0.00
2013-7-14,87.6,74.7,65.1,66.6,60.4,54.8,76,62,46,29.91,29.77,8,0,8,0.00
2013-7-15,86.5,76.3,68.7,66.5,60.1,53.2,76,58,42,29.84,29.75,11,1,11,0.00
2013-7-16,86.8,73.7,62.5,61.7,55.5,50.7,73,54,36,29.95,29.82,9,1,9,0.00
2013-7-17,87.6,74.8,63.6,57.7,53.7,50.7,67,49,30,29.98,29.90,8,1,8,0.00
2013-7-18,86.1,73.6,63.1,64.3,57.7,51.3,74,58,45,29.95,29.81,10,1,10,0.00
2013-7-19,85.2,74.2,65.2,65.1,60.1,54.1,75,62,50,29.87,29.77,10,1,10,0.00
2013-7-20,82.9,73.2,69.4,66.5,60.9,57.4,71,65,56,29.86,29.75,9,0,9,0.00
2013-7-21,74.4,71.6,68.1,63.8,61.2,57.6,74,69,67,29.89,29.76,4,0,4,0.00
2013-7-22,87.2,76.3,69.4,68.4,62.6,58.7,73,63,51,29.94,29.87,12,1,12,0.00
2013-7-23,83.8,74.4,67.6,64.9,60.4,57.0,73,62,48,29.99,29.88,10,1,10,0.00
2013-7-24,81.8,72.8,65.8,64.8,59.6,55.3,74,63,52,29.95,29.85,12,1,12,0.00
2013-7-25,85.2,73.1,64.3,65.9,59.6,54.1,74,63,50,29.98,29.88,9,1,11,0.00
2013-7-26,83.2,73.2,66.9,66.3,60.5,56.3,74,65,54,30.05,29.92,8,0,8,0.00
2013-7-27,85.8,73.5,65.4,66.2,60.0,54.5,73,63,50,29.98,29.82,9,0,9,0.00
2013-7-28,82.3,71.8,66.3,64.4,59.0,55.8,71,64,52,29.90,29.82,10,0,10,0.00
2013-7-29,84.1,73.1,65.8,63.0,58.1,54.1,68,60,47,30.01,29.88,11,1,11,0.00
2013-7-30,82.0,70.4,62.2,63.0,57.2,52.2,76,64,50,30.09,29.98,10,1,10,0.00
2013-7-31,78.4,68.7,61.8,61.8,56.5,52.6,74,65,54,30.08,29.95,9,1,10,0.00
2013-8-1,81.3,70.4,63.6,62.5,57.2,53.6,73,63,50,30.00,29.86,9,0,9,0.00
2013-8-2,83.4,72.2,66.1,63.7,58.7,54.4,70,63,49,29.94,29.85,9,1,9,0.00
2013-8-3,84.7,72.5,65.2,64.7,59.3,55.6,73,64,50,29.96,29.88,6,1,11,0.00
2013-8-4,83.2,71.3,63.4,64.6,58.4,53.9,73,64,50,29.98,29.88,6,1,10,0.00
2013-8-5,84.7,71.0,61.5,63.8,57.2,52.5,76,63,44,29.98,29.87,4,1,10,0.00
2013-8-6,84.1,72.1,65.1,61.9,57.5,53.9,71,61,45,30.00,29.92,6,1,9,0.00
2013-8-7,83.2,70.6,63.1,62.4,57.1,53.3,74,63,48,30.05,29.93,5,1,9,0.00
2013-8-8,84.9,70.3,59.8,64.3,57.0,50.2,79,64,49,29.96,29.86,7,1,9,0.00
2013-8-9,82.9,69.7,61.1,63.1,56.7,52.1,75,64,49,29.93,29.87,7,0,14,0.00
2013-8-10,81.4,70.5,63.1,61.9,57.3,53.5,74,63,49,30.00,29.90,6,1,10,0.00
2013-8-11,83.6,70.7,62.7,62.7,57.2,51.5,76,63,46,29.96,29.84,5,1,10,0.00
2013-8-12,84.7,71.2,61.8,64.2,58.4,53.2,77,65,49,29.94,29.85,4,0,8,0.00
2013-8-13,85.9,72.5,63.4,65.3,59.4,54.3,75,64,49,29.94,29.82,6,0,8,0.00
2013-8-14,87.7,73.8,66.3,67.2,60.7,56.2,75,64,49,29.89,29.78,6,0,10,0.00
2013-8-15,89.2,75.0,64.0,66.8,60.9,54.6,78,63,45,29.91,29.82,7,0,10,0.00
2013-8-16,87.9,76.2,66.3,67.2,60.8,56.3,74,60,42,29.92,29.85,5,1,8,0.00
2013-8-17,86.7,74.7,66.3,65.5,59.5,54.7,73,60,43,29.92,29.77,7,1,8,0.00
2013-8-18,86.5,73.7,64.2,66.5,60.3,54.6,77,63,50,29.87,29.77,6,1,10,0.00
2013-8-19,85.6,73.6,67.2,66.1,60.7,57.0,73,64,49,29.91,29.80,6,0,8,0.00
2013-8-20,84.7,72.9,66.0,64.9,59.8,56.1,75,64,49,29.90,29.79,4,0,8,0.00
2013-8-21,85.4,73.3,62.7,65.3,58.1,53.4,77,60,41,29.89,29.78,8,1,12,0.00
2013-8-22,88.8,75.2,63.6,61.7,56.7,53.4,74,55,34,29.89,29.75,6,1,11,0.00
2013-8-23,90.1,74.9,63.6,63.6,57.0,51.6,72,55,37,29.84,29.69,7,0,8,0.00
2013-8-24,86.8,73.3,64.7,63.1,57.5,52.6,72,58,42,29.84,29.71,4,0,7,0.00
2013-8-25,87.4,73.7,63.4,63.5,57.6,53.8,75,59,39,29.87,29.79,5,0,7,0.00
2013-8-26,92.1,78.0,66.1,67.6,59.1,50.3,74,54,35,29.87,29.76,6,0,10,0.00
2013-8-27,90.1,79.5,71.2,65.3,59.7,54.7,64,51,36,29.81,29.72,8,0,8,0.00
2013-8-28,92.8,79.8,69.9,65.9,58.6,52.9,64,50,30,29.85,29.73,4,0,8,0.00
2013-8-29,96.0,81.7,69.4,65.5,59.6,56.2,70,49,31,29.88,29.82,5,0,5,0.00
2013-8-30,95.5,84.1,73.5,71.8,65.3,57.9,63,53,45,29.93,29.85,9,0,9,0.00
2013-8-31,92.1,83.4,77.7,71.6,66.5,60.3,62,56,50,29.92,29.83,6,0,8,0.00
2013-9-1,89.7,81.0,74.8,71.1,66.2,61.2,67,61,53,29.90,29.80,8,0,8,0.00
2013-9-2,89.7,79.5,71.4,71.1,65.9,60.6,74,63,51,29.88,29.75,7,0,10,0.00
2013-9-3,94.4,81.8,72.4,70.4,65.2,61.8,72,58,40,29.86,29.76,5,0,6,0.00
2013-9-4,94.4,82.7,73.5,68.0,63.7,60.7,69,54,39,29.86,29.77,10,0,10,0.00
2013-9-5,95.8,82.7,73.0,67.5,61.9,58.5,65,51,34,29.85,29.76,5,0,8,0.00
2013-9-6,97.3,82.6,72.4,65.8,60.4,56.8,65,49,31,29.83,29.74,8,0,8,0.00
2013-9-7,94.9,81.0,70.8,66.3,60.6,56.8,69,51,35,29.82,29.74,6,0,9,0.00
2013-9-8,86.7,76.0,68.1,64.4,59.5,55.6,69,57,44,29.81,29.71,5,0,6,0.00
2013-9-9,82.0,72.7,66.9,63.8,58.5,55.4,69,61,49,29.79,29.70,9,0,9,0.00
2013-9-10,81.4,70.6,63.1,62.7,57.6,53.7,74,64,51,29.91,29.77,5,0,7,0.00
2013-9-11,80.7,70.1,63.1,63.3,57.9,52.6,75,65,52,29.96,29.87,5,0,8,0.00
2013-9-12,85.6,71.8,61.5,64.4,58.1,52.3,80,63,43,29.90,29.77,4,0,7,0.00
2013-9-13,86.7,73.7,64.5,64.5,58.6,52.8,76,60,43,29.80,29.62,1,0,1,0.00
2013-9-14,87.0,75.0,65.2,66.6,59.5,54.2,74,59,42,29.69,29.58,7,0,7,0.00
2013-9-15,90.1,75.1,65.4,66.7,59.9,55.3,76,60,43,29.73,29.65,8,0,8,0.00
2013-9-16,88.1,75.0,64.9,65.3,58.9,54.4,75,58,42,29.78,29.69,8,0,9,0.00
2013-9-17,84.1,72.3,66.3,65.3,59.2,54.9,74,63,51,29.79,29.67,4,0,6,0.00
2013-9-18,81.1,71.6,66.7,62.6,58.4,55.3,71,63,52,29.78,29.70,5,0,6,0.00
2013-9-19,82.0,70.2,62.5,65.1,58.7,52.5,77,67,55,29.79,29.70,4,0,4,0.00
2013-9-20,73.5,69.4,67.2,62.1,59.5,57.0,74,70,66,29.85,29.77,0,0,0,0.00
2013-9-21,79.3,70.4,65.6,61.7,58.1,54.7,72,65,53,29.88,29.76,7,0,11,0.00
2013-9-22,78.0,68.3,60.2,58.8,54.3,50.7,77,62,44,29.81,29.74,5,0,8,0.00
2013-9-23,89.2,72.4,59.1,54.6,50.8,47.3,69,49,27,29.86,29.75,7,0,7,0.00
2013-9-24,84.7,72.6,62.5,55.6,51.4,47.6,63,49,31,29.90,29.79,5,0,8,0.00
2013-9-25,79.6,69.7,62.0,62.1,55.8,50.1,72,61,51,29.82,29.66,7,0,9,0.00
2013-9-26,74.6,67.1,60.9,54.7,50.6,47.0,71,56,39,29.85,29.69,7,1,13,0.00
2013-9-27,81.6,66.8,56.2,48.4,45.0,40.8,64,47,29,29.95,29.84,7,0,7,0.00
2013-9-28,87.0,69.5,57.0,45.6,41.3,35.5,53,38,21,30.00,29.90,6,0,7,0.00
2013-9-29,84.3,68.8,57.1,50.1,44.5,38.7,58,43,26,30.03,29.91,6,0,7,0.00
2013-9-30,81.6,69.1,58.9,55.8,49.3,43.1,64,50,34,29.95,29.80,6,0,6,0.00
2013-10-1,82.0,70.5,60.9,59.6,55.5,49.1,76,60,40,29.90,29.81,4,0,4,0.00
2013-10-2,78.7,69.8,64.9,60.3,56.6,52.9,70,63,52,29.94,29.82,5,0,7,0.00
2013-10-3,74.8,68.0,62.7,60.2,56.9,53.6,76,67,58,29.90,29.78,6,0,8,0.00
2013-10-4,85.6,71.5,63.3,57.4,54.2,46.3,73,57,27,29.99,29.84,7,0,8,0.00
2013-10-5,88.1,71.0,57.9,46.3,40.5,35.6,51,35,19,30.08,29.97,5,0,5,0.00
2013-10-6,88.3,71.3,59.5,46.8,37.4,30.4,49,31,15,30.05,29.90,7,0,8,0.00
2013-10-7,83.8,69.2,60.0,52.8,44.8,36.8,62,43,27,29.94,29.84,7,0,8,0.00
2013-10-8,76.2,66.4,59.1,57.7,52.8,46.8,72,62,50,29.89,29.77,6,0,8,0.02
2013-10-9,65.2,62.5,55.5,52.8,49.0,43.1,64,61,55,29.79,29.67,12,1,20,0.00
2013-10-10,69.9,59.7,51.9,50.7,46.6,41.4,71,62,49,29.98,29.77,6,0,6,0.00
2013-10-11,73.9,61.9,52.8,54.8,49.2,42.9,73,64,48,30.01,29.89,7,0,7,0.00
2013-10-12,74.8,63.2,54.8,57.7,51.8,45.2,81,67,52,29.94,29.84,8,0,8,0.00
2013-10-13,72.4,64.7,59.8,56.2,52.9,50.3,75,66,55,29.99,29.90,7,0,7,0.00
2013-10-14,81.1,65.6,54.6,54.3,50.3,45.8,76,60,32,29.99,29.85,6,0,6,0.00
2013-10-15,83.4,68.3,57.7,49.8,43.0,39.2,63,42,24,29.93,29.80,5,0,6,0.00
2013-10-16,82.3,67.8,58.0,43.5,39.7,35.3,54,37,23,30.03,29.92,5,0,5,0.00
2013-10-17,80.5,66.3,56.6,48.5,41.7,35.2,60,42,27,30.00,29.87,6,0,8,0.00
2013-10-18,81.3,66.1,55.9,53.6,47.5,41.4,63,52,32,29.98,29.87,4,0,5,0.00
2013-10-19,82.5,66.6,55.9,53.4,47.9,42.6,67,53,29,29.98,29.90,4,0,6,0.00
2013-10-20,76.2,64.1,56.2,59.3,52.7,45.1,78,67,53,29.95,29.85,4,0,5,0.00
2013-10-21,75.9,64.1,57.3,57.9,53.0,48.3,76,68,51,29.95,29.85,3,0,3,0.00
2013-10-22,74.2,63.0,55.3,59.4,53.0,45.7,82,70,58,29.97,29.85,3,0,3,0.00
2013-10-23,70.3,63.4,58.2,57.8,53.8,49.9,78,71,62,29.94,29.85,5,0,5,0.00
2013-10-24,70.8,63.9,58.6,57.5,53.5,49.9,73,69,61,30.02,29.91,5,0,6,0.00
2013-10-25,72.4,63.2,56.8,58.8,53.7,48.5,78,71,60,30.09,29.95,3,0,3,0.00
2013-10-26,74.1,62.6,55.0,59.1,53.4,46.2,85,72,58,30.05,29.92,3,0,3,0.00
2013-10-27,71.7,62.6,57.3,60.7,54.5,49.6,84,75,65,29.94,29.77,2,0,2,0.00
2013-10-28,66.3,61.4,58.4,53.3,50.3,47.6,75,67,55,29.90,29.77,6,1,11,0.00
2013-10-29,64.9,58.2,52.3,50.3,47.8,43.3,77,68,58,29.98,29.89,6,0,7,0.02
2013-10-30,68.8,58.1,50.8,50.8,46.9,42.3,76,67,50,30.03,29.93,6,0,6,0.00
2013-10-31,75.1,60.9,51.4,46.5,44.5,42.0,74,57,33,30.05,29.93,0,0,0,0.00
2013-11-1,79.8,63.8,51.6,44.4,41.9,38.3,64,47,27,30.06,29.88,0,0,0,0.00
2013-11-2,78.7,65.4,56.6,54.2,43.5,35.4,72,47,28,29.95,29.82,7,0,10,0.00
2013-11-3,70.5,63.8,59.7,55.1,51.9,46.9,72,65,56,29.90,29.78,9,1,10,0.00
2013-11-4,67.6,62.4,57.3,53.5,51.2,48.4,75,67,60,29.91,29.76,3,1,8,0.00
2013-11-5,72.3,60.3,52.8,50.5,44.4,38.1,76,58,34,30.10,29.90,3,1,6,0.00
2013-11-6,76.0,61.6,51.9,39.2,35.7,30.3,52,40,23,30.16,30.06,6,1,6,0.00
2013-11-7,79.6,64.7,55.5,41.2,36.2,29.1,46,36,22,30.08,29.94,11,1,11,0.00
2013-11-8,74.4,62.4,53.7,50.9,41.8,33.0,73,48,35,30.00,29.87,3,1,5,0.00
2013-11-9,73.0,62.2,55.5,52.0,47.3,39.2,75,60,33,30.05,29.94,3,1,7,0.00
2013-11-10,75.5,60.0,51.9,52.2,44.3,38.0,71,57,29,30.09,29.98,5,0,7,0.00
2013-11-11,74.2,60.7,51.7,48.7,45.4,40.4,71,58,38,30.10,29.97,4,1,8,0.00
2013-11-12,73.0,62.0,55.3,51.0,47.1,44.3,72,59,43,30.12,30.01,5,0,12,0.00
2013-11-13,84.3,68.0,57.9,46.5,43.1,39.7,60,42,24,30.01,29.83,3,1,6,0.00
2013-11-14,83.8,68.9,60.4,52.7,42.0,35.3,67,39,23,29.89,29.72,5,1,9,0.00
2013-11-15,68.1,63.6,59.5,54.7,52.7,50.2,74,67,60,29.73,29.63,3,1,6,0.00
2013-11-16,65.4,60.7,56.2,52.0,49.6,46.2,76,67,57,29.90,29.71,3,1,10,0.00
2013-11-17,66.9,59.0,54.3,52.4,48.6,44.7,75,68,56,30.06,29.90,3,1,9,0.00
2013-11-18,65.2,58.8,53.5,53.6,49.8,45.5,77,72,65,30.12,30.00,3,1,6,0.00
2013-11-19,65.8,60.4,57.1,53.5,50.7,48.3,75,70,63,30.05,29.90,3,1,7,0.00
2013-11-20,63.6,59.7,55.9,53.9,51.6,48.1,81,74,68,29.94,29.85,3,0,14,0.06
2013-11-21,62.7,59.5,56.4,56.4,53.3,49.7,86,80,73,29.85,29.79,7,1,10,0.19
2013-11-22,61.3,56.8,53.5,50.8,48.0,45.5,80,72,61,29.92,29.79,3,0,4,0.00
2013-11-23,64.3,56.0,50.8,50.3,44.4,41.7,73,65,53,30.05,29.91,3,0,5,0.00
2013-11-24,64.5,55.5,49.6,48.3,42.9,38.5,71,63,52,30.15,30.04,3,0,5,0.00
2013-11-25,67.0,56.2,49.0,48.3,43.4,38.1,72,62,47,30.20,30.10,3,1,9,0.00
2013-11-26,71.5,59.3,50.8,46.0,43.2,40.2,71,56,36,30.15,29.99,2,0,5,0.00
2013-11-27,70.8,60.3,54.4,44.5,41.6,38.0,61,51,37,30.00,29.83,3,0,7,0.00
2013-11-28,67.2,59.0,52.8,50.3,43.8,37.0,68,57,48,30.02,29.85,6,1,16,0.00
2013-11-29,60.2,57.4,55.5,52.9,49.9,45.6,81,76,67,30.16,30.02,3,0,6,0.34
2013-11-30,69.4,58.8,52.6,51.3,47.9,44.9,79,68,51,30.15,30.02,3,0,6,0.00
2013-12-1,72.8,60.3,53.4,45.9,42.9,39.8,71,54,36,30.18,30.04,5,0,8,0.00
2013-12-2,69.0,58.7,52.8,45.1,39.7,34.7,61,50,36,30.08,29.87,3,0,10,0.00
2013-12-3,64.0,56.8,50.5,51.9,45.5,36.8,71,65,59,29.87,29.70,10,1,11,0.00
2013-12-4,60.6,52.6,46.9,43.5,37.8,33.6,66,57,46,29.93,29.74,4,1,12,0.00
2013-12-5,58.9,51.1,46.5,38.9,36.4,33.9,64,57,44,30.07,29.91,3,1,6,0.00
2013-12-6,57.3,50.8,45.3,43.0,38.4,33.7,67,62,56,30.14,30.05,3,1,6,0.00
2013-12-7,54.3,49.1,43.8,46.4,40.4,35.4,77,72,65,30.08,29.95,3,0,8,0.10
2013-12-8,55.5,47.7,41.5,40.2,36.3,31.3,74,65,53,30.17,30.05,4,0,5,0.00
2013-12-9,57.9,47.6,41.5,36.3,31.2,26.9,68,54,34,30.26,30.15,3,1,12,0.00
2013-12-10,60.6,48.9,40.9,32.1,25.9,21.9,53,41,27,30.24,30.05,3,0,8,0.00
2013-12-11,66.1,52.6,42.9,34.7,28.8,22.3,51,41,24,30.13,30.05,3,0,8,0.00
2013-12-12,64.3,54.4,48.1,46.2,39.6,29.8,72,58,45,30.18,30.08,3,1,14,0.00
2013-12-13,60.9,52.3,46.3,45.0,40.6,35.4,71,65,49,30.19,30.08,2,0,12,0.00
2013-12-14,67.9,54.7,46.0,40.3,37.1,33.7,72,53,33,30.25,30.14,4,1,7,0.00
2013-12-15,72.1,58.7,49.6,40.6,34.3,27.8,52,41,24,30.21,30.03,4,1,6,0.00
2013-12-16,78.2,63.8,56.1,43.4,38.3,31.8,51,40,24,30.09,29.99,10,1,14,0.00
2013-12-17,73.5,63.7,57.3,48.5,42.5,35.2,62,46,37,30.08,29.96,8,0,11,0.00
2013-12-18,67.6,61.3,56.6,51.3,48.8,43.1,72,63,51,29.96,29.81,3,1,10,0.00
2013-12-19,58.9,54.8,48.3,49.9,46.1,40.4,77,72,65,29.82,29.67,6,0,6,0.19
2013-12-20,60.2,51.8,46.2,47.8,42.9,37.3,77,72,60,29.92,29.73,6,0,6,0.00
2013-12-21,60.7,52.6,48.1,49.2,43.9,39.2,76,72,64,30.05,29.89,4,0,4,0.00
2013-12-22,65.2,53.5,46.7,49.3,43.7,37.5,77,70,52,30.22,30.04,7,0,7,0.00
2013-12-23,69.9,57.2,50.1,44.4,41.9,39.0,74,58,39,30.27,30.14,7,0,10,0.00
2013-12-24,73.3,59.3,52.1,43.8,40.0,35.5,61,50,32,30.16,30.03,4,1,8,0.00
2013-12-25,74.4,60.0,50.8,38.7,35.4,30.3,55,41,24,30.16,30.06,6,1,8,0.00
2013-12-26,74.1,58.9,49.9,34.0,30.1,25.3,45,35,19,30.14,30.01,6,1,10,0.00
2013-12-27,76.2,59.6,51.2,34.9,30.3,24.4,46,34,19,30.12,29.99,4,1,8,0.00
2013-12-28,69.0,58.2,51.9,46.9,37.1,30.7,74,47,31,30.00,29.88,6,0,11,0.00
2013-12-29,69.7,56.9,48.7,48.1,37.8,29.4,77,52,28,30.11,29.96,10,0,12,0.00
2013-12-30,69.6,56.1,48.1,34.7,29.9,22.1,49,38,24,30.22,30.09,5,1,7,0.00
2013-12-31,67.6,54.6,46.5,42.9,33.1,25.4,64,45,28,30.16,30.03,5,0,14,0.00
2014-1-1,67.8,54.7,46.5,47.6,40.1,33.2,65,58,43,30.10,30.00,4,0,8,0.00
2014-1-2,75.3,59.9,52.3,44.0,38.2,32.1,61,46,27,30.06,29.93,4,0,12,0.00